{"data":{"norad_id":46758,"intl_designator":"2020-074V","name":"STARLINK-1928","alt_names":[],"object_type":"PAYLOAD","status":"ACTIVE","operator":null,"country":"US","launch_date":"2020-10-24","launch_site_code":"AFETR","launch_vehicle":null,"mission":null,"orbit_class":"UNKNOWN","rcs_meters":null,"size_class":null,"mass_kg":null,"dimensions":null,"purposes":["comms"],"wikipedia_slug":null,"has_3d_model":false,"image_url":null,"decayed_at":null,"tle_current":{"epoch":"2026-05-25T00:00:02.000160Z","epoch_age_seconds":71723,"freshness":"FRESH","line1":"1 46758U 20074V   26145.00002315  .00186562  00000+0  69693-3 0  9995","line2":"2 46758  53.0382 264.0137 0007305 292.0801  44.2620 15.86883524  6018","mean_motion":15.86883524,"eccentricity":0.0007305,"inclination_deg":53.0382,"raan_deg":264.0137,"arg_perigee_deg":292.0801,"mean_anomaly_deg":44.262,"bstar":0.00069693,"rev_number":601,"period_min":90.743900117524,"perigee_km":306.14000380891,"apogee_km":315.91287159139,"semimajor_km":6689.1634377001,"source":"CELESTRAK","updated_at":"2026-05-25T13:38:16.519432Z"}}}